This demonstration page uses our WeatherBlox Daily Observations layout. Learn more.

Left ArrowRight Arrow

Hourly Observations for December 20, 2017

Temp ( °F °C ) Dew Point ( °F °C ) Humidity (%) Winds ( mph kmh ) Pressure ( in mb ) Visibility ( mi km ) Precip ( " mm )
12:15 am 00:15 Clear 45 7 37 3 76 76 NW 10 17 29.91 1013 10 16 N/A
12:35 am 00:35 Clear 46 8 39 4 76 76 WNW 12 19 29.88 1012 10 16 N/A
12:55 am 00:55 Clear 50 10 39 4 67 67 NW 12 19 29.85 1011 10 16 N/A
1:15 am 01:15 Clear 52 11 39 4 62 62 WNW 13 20 29.85 1011 10 16 N/A
1:35 am 01:35 Clear 52 11 39 4 62 62 NW 9 15 29.88 1012 10 16 N/A
1:55 am 01:55 Clear 52 11 39 4 62 62 WNW 9 15 29.88 1012 10 16 N/A
2:15 am 02:15 Clear 52 11 37 3 58 58 SW 3 6 29.88 1012 10 16 N/A
2:35 am 02:35 Clear 52 11 37 3 58 58 W 5 7 29.88 1012 10 16 N/A
2:55 am 02:55 Clear 50 10 36 2 58 58 NW 8 13 29.91 1013 10 16 N/A
3:15 am 03:15 Clear 50 10 34 1 54 54 WNW 8 13 29.91 1013 10 16 N/A
3:35 am 03:35 Clear 52 11 34 1 50 50 NW 20 31 29.91 1013 10 16 N/A
3:55 am 03:55 Clear 52 11 32 undefined 47 47 NW 22 35 29.91 1013 10 16 N/A
4:15 am 04:15 Clear 52 11 32 undefined 47 47 NW 18 30 29.88 1012 10 16 N/A
4:35 am 04:35 Clear 52 11 34 1 50 50 WNW 20 31 29.91 1013 10 16 N/A
4:55 am 04:55 Clear 50 10 34 1 54 54 NW 23 37 29.91 1013 10 16 N/A
5:15 am 05:15 Clear 50 10 34 1 54 54 WNW 20 31 29.91 1013 10 16 N/A
5:35 am 05:35 Clear 50 10 34 1 54 54 NW 21 33 29.91 1013 10 16 N/A
5:55 am 05:55 Clear 50 10 34 1 54 54 NW 10 17 29.94 1014 10 16 N/A
6:15 am 06:15 Clear 48 9 34 1 58 58 W 3 6 29.94 1014 10 16 N/A
6:35 am 06:35 Clear 48 9 34 1 58 58 WNW 8 13 30.00 1016 10 16 N/A
6:55 am 06:55 Clear 46 8 34 1 62 62 W 8 13 30.00 1016 10 16 N/A
7:15 am 07:15 Clear 46 8 34 1 62 62 WNW 12 19 30.00 1016 10 16 N/A
7:35 am 07:35 Sunny 46 8 34 1 62 62 WNW 8 13 30.00 1016 10 16 N/A
7:55 am 07:55 Sunny 46 8 34 1 62 62 NW 9 15 30.00 1016 10 16 N/A
8:15 am 08:15 Sunny 46 8 34 1 62 62 WNW 12 19 30.03 1017 10 16 N/A
8:35 am 08:35 Sunny 46 8 34 1 62 62 W 7 11 30.03 1017 10 16 N/A
8:55 am 08:55 Sunny 46 8 34 1 62 62 WNW 9 15 30.03 1017 10 16 N/A
9:15 am 09:15 Sunny 46 8 32 undefined 57 57 WNW 14 22 30.03 1017 10 16 N/A
9:35 am 09:35 Sunny 48 9 32 undefined 54 54 NW 13 20 30.03 1017 10 16 N/A
9:55 am 09:55 Sunny 48 9 32 undefined 54 54 NW 14 22 30.06 1018 10 16 N/A
10:15 am 10:15 Sunny 48 9 32 undefined 54 54 NW 14 22 30.03 1017 10 16 N/A
10:35 am 10:35 Sunny 48 9 32 undefined 54 54 WNW 17 28 30.03 1017 10 16 N/A
10:55 am 10:55 Sunny 48 9 32 undefined 54 54 NW 10 17 30.03 1017 10 16 N/A
11:15 am 11:15 Sunny 50 10 32 undefined 50 50 NNW 9 15 30.00 1016 10 16 N/A
11:35 am 11:35 Sunny 50 10 32 undefined 50 50 NW 7 11 30.00 1016 10 16 N/A
11:55 am 11:55 Sunny 50 10 32 undefined 50 50 NW 12 19 30.00 1016 10 16 N/A
12:15 pm 12:15 Sunny 50 10 32 undefined 50 50 NW 9 15 30.00 1016 10 16 N/A
12:35 pm 12:35 Sunny 50 10 32 undefined 50 50 NNW 7 11 29.97 1015 10 16 N/A
12:55 pm 12:55 Sunny 50 10 32 undefined 50 50 NW 8 13 29.97 1015 10 16 N/A
1:15 pm 13:15 Sunny 50 10 30 -1 47 47 NNW 9 15 29.97 1015 10 16 N/A
1:35 pm 13:35 Sunny 50 10 28 -2 43 43 NW 14 22 29.97 1015 10 16 N/A
1:55 pm 13:55 Sunny 50 10 27 -3 40 40 NW 10 17 29.97 1015 10 16 N/A
2:15 pm 14:15 Sunny 50 10 25 -4 37 37 NNW 13 20 29.97 1015 10 16 N/A
2:35 pm 14:35 Sunny 50 10 25 -4 37 37 NW 12 19 29.97 1015 10 16 N/A
2:55 pm 14:55 Sunny 50 10 25 -4 37 37 NW 12 19 29.97 1015 10 16 N/A
3:15 pm 15:15 Sunny 48 9 25 -4 40 40 NW 9 15 30.00 1016 10 16 N/A
3:35 pm 15:35 Sunny 48 9 27 -3 43 43 NW 7 11 30.00 1016 10 16 N/A
3:55 pm 15:55 Sunny 48 9 27 -3 43 43 N 5 7 30.00 1016 10 16 N/A
4:15 pm 16:15 Sunny 46 8 28 -2 50 50 N N/A 30.00 1016 10 16 N/A
4:35 pm 16:35 Sunny 46 8 28 -2 50 50 N N/A 30.03 1017 10 16 N/A
4:55 pm 16:55 Clear 46 8 28 -2 50 50 N N/A 30.03 1017 10 16 N/A
5:15 pm 17:15 Clear 45 7 28 -2 53 53 N N/A 30.03 1017 10 16 N/A
5:35 pm 17:35 Clear 43 6 28 -2 57 57 N N/A 30.03 1017 10 16 N/A
5:55 pm 17:55 Clear 43 6 28 -2 57 57 N N/A 30.03 1017 10 16 N/A
6:15 pm 18:15 Clear 41 5 30 -1 66 66 N N/A 30.06 1018 10 16 N/A
6:35 pm 18:35 Clear 39 4 30 -1 70 70 N N/A 30.06 1018 10 16 N/A
6:55 pm 18:55 Clear 39 4 30 -1 70 70 N N/A 30.06 1018 10 16 N/A
7:15 pm 19:15 Clear 41 5 30 -1 66 66 N 3 6 30.06 1018 10 16 N/A
7:35 pm 19:35 Clear 39 4 28 -2 65 65 N 5 7 30.06 1018 10 16 N/A
7:55 pm 19:55 Clear 37 3 28 -2 70 70 NNE 8 13 30.09 1019 10 16 N/A
8:15 pm 20:15 Clear 37 3 30 -1 75 75 NNE 6 9 30.09 1019 10 16 N/A
8:35 pm 20:35 Clear 36 2 28 -2 75 75 N 5 7 30.09 1019 10 16 N/A
8:55 pm 20:55 Clear 34 1 28 -2 81 81 N 3 6 30.09 1019 10 16 N/A
9:15 pm 21:15 Clear 34 1 28 -2 81 81 N N/A 30.09 1019 10 16 N/A
9:35 pm 21:35 Clear 36 2 28 -2 75 75 NNE 6 9 30.09 1019 10 16 N/A
9:55 pm 21:55 Clear 37 3 27 -3 65 65 N 6 9 30.09 1019 10 16 N/A
10:15 pm 22:15 Clear 32 undefined 28 -2 87 87 N 6 9 30.09 1019 10 16 N/A
10:35 pm 22:35 Clear 36 2 28 -2 75 75 N 5 7 30.09 1019 10 16 N/A
10:55 pm 22:55 Clear 32 undefined 28 -2 87 87 NNW 3 6 30.09 1019 10 16 N/A
11:15 pm 23:15 Clear 32 undefined 28 -2 87 87 N N/A 30.12 1020 10 16 N/A
11:35 pm 23:35 Clear 30 -1 27 -3 86 86 NNW 3 6 30.12 1020 10 16 N/A
11:50 pm 23:50 Clear 32 undefined 27 -3 80 80 NNW 5 7 30.12 1020 10 16 N/A

Powered by AerisWeather